This demonstration page uses our WeatherBlox Daily Observations layout. Learn more.

Left ArrowRight Arrow

Hourly Observations for September 9, 2022

Temp ( °F °C ) Dew Point ( °F °C ) Humidity (%) Winds ( mph kmh ) Pressure ( in mb ) Visibility ( mi km ) Precip ( " mm )
12:53 am 00:53 Clear 74 23.3 49 9.4 41 41 S 10 17 29.69 1006 10 16 0.00 0.00
1:53 am 01:53 Clear 73 22.8 49 9.4 42 42 SSW 9 15 29.69 1006 10 16 0.00 0.00
2:53 am 02:53 Clear 67 19.4 53 11.7 61 61 NNW 10 17 29.75 1008 10 16 0.00 0.00
3:53 am 03:53 Clear 62 16.7 53 11.7 72 72 SSE 3 6 29.75 1007 10 16 0.00 0.00
5:02 am 05:02 Clear 66 18.9 56 13.3 70 70 N 15 24 29.78 1009 10 16 0.00 0.00
5:53 am 05:53 Clear 62 16.7 53 11.7 72 72 N 7 11 29.78 1009 10 16 0.00 0.00
6:53 am 06:53 Clear 61 16.1 54 12.2 78 78 NNE 7 11 29.79 1009 10 16 0.00 0.00
9:53 am 09:53 Sunny 67 19.4 52 11.1 59 59 N 15 24 29.87 1012 10 16 0.00 0.00
10:53 am 10:53 Sunny 66 18.9 52 11.1 61 61 N 13 20 29.89 1012 10 16 0.00 0.00
11:53 am 11:53 Sunny 69 20.6 53 11.7 57 57 NE 12 19 29.88 1012 10 16 0.00 0.00
12:53 pm 12:53 Sunny 74 23.3 55 12.8 52 52 NNE 13 20 29.85 1011 10 16 0.00 0.00
1:53 pm 13:53 Sunny 71 21.7 54 12.2 55 55 N 15 24 29.87 1012 10 16 0.00 0.00
2:53 pm 14:53 Mostly Sunny 72 22.2 54 12.2 53 53 NNE 18 30 29.88 1012 10 16 0.00 0.00
3:53 pm 15:53 Cloudy 68 20 53 11.7 59 59 NNE 18 30 29.91 1013 10 16 0.00 0.00
4:53 pm 16:53 Cloudy 68 20 53 11.7 59 59 NNE 15 24 29.92 1013 10 16 0.00 0.00
5:53 pm 17:53 Cloudy 67 19.4 54 12.2 63 63 NNE 21 33 29.95 1014 10 16 0.00 0.00
6:53 pm 18:53 Mostly Cloudy 65 18.3 54 12.2 68 68 NNE 21 33 29.96 1015 10 16 0.00 0.00
7:53 pm 19:53 Partly Cloudy 63 17.2 54 12.2 72 72 NNE 17 28 29.96 1015 10 16 0.00 0.00
8:53 pm 20:53 Mostly Cloudy 61 16.1 53 11.7 75 75 NNE 17 28 29.99 1016 10 16 0.00 0.00
9:49 pm 21:49 Cloudy 61 16 54 12 77 77 N 18 30 30.01 1016 10 16 0.00 0.00
9:53 pm 21:53 Cloudy 60 15.6 53 11.7 78 78 N 21 33 30.02 1017 10 16 0.00 0.00
10:53 pm 22:53 Cloudy 59 15 52 11.1 77 77 NNE 14 22 30.04 1017 10 16 0.00 0.00
11:17 pm 23:17 Cloudy with Nearby Thunderstorms 58 14.4 52 11.1 81 81 N 13 20 30.06 1018 10 16 0.00 0.00
11:32 pm 23:32 Cloudy with Light Rain 57 13.9 54 12.2 89 89 NNE 17 28 30.02 1017 10 16 0.01 0.13
11:42 pm 23:42 Cloudy with Nearby Thunderstorms 57 13.9 54 12.2 89 89 NNE 13 20 30.03 1017 10 16 0.01 0.13
11:53 pm 23:53 Cloudy 57 13.9 54 12.2 89 89 NNE 12 19 30.02 1017 10 16 0.01 0.13

Powered by AerisWeather